Home > Weather > Melhus > Past weeks

Flag for Norway Past Weather in Melhus, Norway — Yesterday and Last 2 Weeks

Now
61 °F

Light rain. Passing clouds.


Feels Like: 61 °F
Forecast: 53 / 81 °F
Wind: 1 mph from Northeast

Location: Trondheim / Vaernes

Current Time: Jul 24, 2016 at 3:11:28 AM

Latest Report: Jul 24, 2016 at 1:50 AM


Visibility: N/A

Pressure: 30.12 "Hg

Humidity: 94%

Dew Point: 59 °F

Location of MelhusLocation

Past Weather in Melhus — Graph

°F

Melhus Temperature Yesterday

Maximum temperature yesterday: 66 °F (at 6:50 PM)
Minimum temperature yesterday: 61 °F (at 1:50 AM)
Average temperature yesterday: 64 °F

High & Low Weather Summary for the Past Weeks

 TemperatureHumidityPressure
High84 °F (Jul 21, 2:50 PM)100% (Jul 13, 7:20 AM)30.12 "Hg (Jul 13, 7:20 AM)
Low45 °F (Jul 19, 3:50 AM)33% (Jul 21, 3:20 PM)29.39 "Hg (Jul 11, 9:20 AM)
Average60 °F75%29.84 "Hg
* Reported Jul 9 2:20 AM — Jul 24 1:50 AM, Melhus, Weather by CustomWeather, © 2016

Note: Actual official high and low records may vary slightly from our data, if they occured in-between our weather recording intervals... More about our weather records

Advertising

Melhus Weather History for the Previous 24 Hours

Scroll right to see more
 ConditionsComfort  
Time TempWeatherWind HumidityBarometerVisibility
1:50 AM
Sun, Jul 24
61 °FLight rain. Passing clouds.1 mph94%30.12 "HgN/A
12:50 AM63 °FLight rain. Passing clouds.2 mph88%30.12 "HgN/A
11:50 PM
Sat, Jul 23
63 °FLight rain. Partly cloudy.5 mph88%30.12 "HgN/A
11:20 PM63 °FLight rain. Broken clouds.7 mph88%30.12 "HgN/A
10:50 PM64 °FLight rain. Partly sunny.8 mph83%30.12 "HgN/A
10:20 PM64 °FPartly sunny.9 mph83%30.12 "HgN/A
9:50 PM64 °FPartly sunny.8 mph83%30.12 "HgN/A
9:20 PM64 °FBroken clouds.9 mph83%30.12 "HgN/A
8:50 PM64 °FBroken clouds.9 mph88%30.12 "HgN/A
8:20 PM66 °FPartly sunny.8 mph78%30.12 "HgN/A
7:50 PM66 °FScattered clouds.9 mph78%30.12 "HgN/A
7:20 PM66 °FBroken clouds.8 mph78%30.12 "HgN/A
6:50 PM66 °FMostly cloudy.8 mph78%30.12 "HgN/A
6:20 PM64 °FPartly sunny.10 mph83%30.12 "HgN/A
5:50 PM64 °FBroken clouds.10 mph83%30.12 "HgN/A
5:20 PM64 °FBroken clouds.13 mph83%30.12 "HgN/A
4:50 PM64 °FBroken clouds.13 mph83%30.12 "HgN/A
4:20 PM64 °FBroken clouds.14 mph83%30.12 "HgN/A
3:50 PM64 °FBroken clouds.14 mph83%30.12 "HgN/A
3:20 PM64 °FBroken clouds.14 mph83%30.12 "HgN/A
2:50 PM64 °FBroken clouds.14 mph83%30.12 "HgN/A
2:20 PM64 °FBroken clouds.13 mph83%30.12 "HgN/A
1:50 PM64 °FBroken clouds.12 mph83%30.12 "HgN/A
12:50 PM64 °FBroken clouds.13 mph83%30.12 "HgN/A
12:20 PM64 °FBroken clouds.14 mph88%30.12 "HgN/A
11:50 AM64 °FBroken clouds.10 mph88%30.12 "HgN/A
11:20 AM64 °FPartly sunny.10 mph88%30.12 "HgN/A
10:50 AM64 °FBroken clouds.12 mph88%30.12 "HgN/A
10:20 AM64 °FPartly sunny.9 mph88%30.12 "HgN/A
9:50 AM64 °FScattered clouds.8 mph88%30.12 "HgN/A
9:20 AM64 °FScattered clouds.3 mph88%30.12 "HgN/A
8:50 AM64 °FScattered clouds.2 mph88%30.09 "HgN/A
8:20 AM63 °FScattered clouds.1 mph94%30.09 "HgN/A
7:50 AM63 °FPartly sunny.1 mph94%30.09 "HgN/A
7:20 AM61 °FPartly sunny.1 mph94%30.09 "HgN/A
6:50 AM61 °FFog.2 mph94%30.09 "HgN/A
6:20 AM61 °FFog.3 mph94%30.07 "HgN/A
5:50 AM61 °FFog.6 mph94%30.07 "HgN/A
5:20 AM61 °FFog.7 mph94%30.07 "HgN/A
4:50 AM61 °FPassing clouds.6 mph94%30.07 "HgN/A
3:50 AM61 °FPassing clouds.5 mph94%30.07 "HgN/A
Weather by CustomWeather, © 2016

See weather overviewHow to use our weather pages